CW1461 Weather Reports


Display with metric or nautical units.
time (UTC)temp
F
wind
direction
speed
MPH
gust
MPH
rain 1hr
in
rain 24hr
in
rain mn
in
humidity
%
barometer
mb
20170530030111 55 209 0.0 3.0 0.03 0.09 0.03 95 1008.8
20170530025110 55 232 0.0 2.0 0.01 0.07 0.01 95 1008.8
20170530024110 55 233 0.0 1.0 0.00 0.06 0.00 94 1008.8
20170530023111 55 233 0.0 3.0 0.00 0.06 0.00 95 1008.9
20170530022111 55 232 0.0 2.0 0.00 0.06 0.00 94 1009.0
20170530020111 54 214 1.0 3.0 0.00 0.06 0.00 94 1009.1
20170530014110 54 263 0.0 3.0 0.00 0.06 0.00 94 1009.1
20170530013111 54 236 1.0 3.0 0.00 0.06 0.00 94 1009.2
20170530012110 54 227 0.0 2.0 0.00 0.06 0.00 94 1009.2
20170530005110 54 235 0.0 3.0 0.00 0.06 0.00 94 1009.4
20170530004111 55 227 0.0 3.0 0.00 0.06 0.00 94 1009.5
20170530003111 55 205 0.0 2.0 0.00 0.06 0.00 94 1009.6
20170529235111 55 173 1.0 3.0 0.00 0.06 0.00 94 1010.1
20170529232111 55 190 0.0 1.0 0.00 0.06 0.00 94 1010.3
20170529230111 55 194 0.0 2.0 0.00 0.06 0.00 93 1010.4
20170529225111 55 198 1.0 3.0 0.00 0.06 0.06 93 1010.6
20170529224111 55 10 0.0 2.0 0.00 0.06 0.06 93 1010.7
20170529223110 55 0 0.0 2.0 0.00 0.06 0.06 93 1010.6
20170529222111 55 0 0.0 2.0 0.00 0.06 0.06 93 1010.5
20170529221111 55 0 0.0 1.0 0.00 0.06 0.06 93 1010.6
20170529220111 55 0 0.0 1.0 0.00 0.06 0.06 93 1010.6
20170529213110 55 0 0.0 0.0 0.00 0.06 0.06 93 1010.6
20170529212111 55 0 0.0 2.0 0.00 0.06 0.06 93 1010.7
20170529211111 55 79 0.0 0.0 0.00 0.06 0.06 93 1010.7
20170529205111 56 79 0.0 0.0 0.00 0.06 0.06 93 1010.9
20170529204110 56 79 0.0 1.0 0.00 0.06 0.06 93 1010.9
20170529203110 56 79 0.0 1.0 0.01 0.06 0.06 92 1010.8
20170529201111 56 82 0.0 1.0 0.01 0.06 0.06 92 1010.8
20170529200111 56 82 0.0 0.0 0.01 0.06 0.06 92 1010.8
20170529191111 56 82 1.0 2.0 0.01 0.06 0.06 92 1010.8
20170529190111 56 82 0.0 1.0 0.01 0.06 0.06 92 1011.0
20170529185111 56 82 0.0 1.0 0.01 0.06 0.06 92 1010.9
20170529184110 56 82 0.0 1.0 0.01 0.06 0.06 91 1011.1
20170529183110 56 82 0.0 1.0 0.01 0.06 0.06 91 1011.3
20170529182110 56 82 0.0 3.0 0.01 0.06 0.06 91 1011.3
20170529181111 56 82 0.0 2.0 0.00 0.05 0.05 91 1011.5
20170529180111 56 87 0.0 6.0 0.00 0.05 0.05 91 1011.4
20170529172110 56 80 1.0 3.0 0.00 0.05 0.05 91 1011.5
20170529171111 56 79 1.0 5.0 0.00 0.05 0.05 91 1011.5
20170529170112 56 69 2.0 3.0 0.00 0.05 0.05 91 1011.6
20170529163110 56 84 2.0 6.0 0.00 0.05 0.05 91 1012.0
20170529162110 56 75 1.0 5.0 0.00 0.05 0.05 92 1012.1
20170529155111 56 84 1.0 5.0 0.00 0.05 0.05 92 1012.2
20170529154110 56 85 2.0 7.0 0.00 0.05 0.05 92 1012.2
20170529153111 56 88 3.0 6.0 0.00 0.05 0.05 92 1012.4
20170529151110 55 96 2.0 5.0 0.00 0.05 0.05 93 1012.6
20170529143110 55 98 3.0 9.0 0.00 0.05 0.05 93 1013.0
20170529142111 55 99 5.0 9.0 0.00 0.05 0.05 93 1013.1
20170529141111 55 102 3.0 8.0 0.00 0.05 0.05 94 1013.1
20170529140111 55 93 2.0 7.0 0.00 0.05 0.05 94 1013.2
20170529130111 55 80 1.0 5.0 0.00 0.05 0.05 94 1013.7
20170529124111 55 115 2.0 8.0 0.00 0.05 0.05 94 1013.8
20170529123111 55 96 4.0 9.0 0.00 0.05 0.05 94 1013.9
20170529121111 55 102 3.0 9.0 0.00 0.05 0.05 94 1014.1
20170529120112 55 92 3.0 8.0 0.00 0.05 0.05 94 1014.1
20170529115111 55 81 2.0 7.0 0.00 0.05 0.05 94 1014.2
20170529114110 55 81 5.0 9.0 0.00 0.05 0.05 94 1014.2
20170529113111 55 108 2.0 10.0 0.00 0.05 0.05 94 1014.2
20170529112110 55 91 3.0 10.0 0.00 0.05 0.05 94 1014.0
20170529111111 55 83 2.0 8.0 0.00 0.05 0.05 95 1014.0
20170529110113 55 85 5.0 9.0 0.00 0.05 0.05 95 1014.1
20170529105111 55 93 3.0 9.0 0.00 0.05 0.05 95 1014.2
20170529104111 54 82 2.0 9.0 0.00 0.05 0.05 95 1014.3
20170529102111 55 115 2.0 7.0 0.00 0.05 0.05 95 1014.5
20170529101111 55 75 2.0 5.0 0.00 0.05 0.05 95 1014.3
20170529100113 55 74 1.0 8.0 0.01 0.05 0.05 95 1014.4
20170529095110 54 87 1.0 5.0 0.02 0.05 0.05 95 1014.4
20170529094111 54 40 1.0 5.0 0.02 0.05 0.05 95 1014.7
20170529093111 54 56 1.0 7.0 0.02 0.05 0.05 95 1014.8
20170529092111 54 107 2.0 5.0 0.03 0.05 0.05 95 1014.8
20170529090112 53 94 0.0 3.0 0.03 0.04 0.04 95 1015.1
20170529084111 53 27 0.0 5.0 0.03 0.03 0.03 95 1015.1
20170529083111 53 59 1.0 5.0 0.02 0.02 0.02 95 1015.1
20170529082111 53 69 1.0 7.0 0.02 0.02 0.02 95 1015.1
20170529080112 53 36 0.0 5.0 0.01 0.01 0.01 95 1014.9
20170529075111 53 355 1.0 6.0 0.00 0.00 0.00 95 1014.9
20170529071111 53 46 2.0 8.0 0.00 0.00 0.00 94 1014.5
20170529070112 53 22 1.0 8.0 0.00 0.00 0.00 94 1014.4
20170529065110 53 80 1.0 8.0 0.00 0.00 0.00 94 1014.4
20170529064111 53 78 2.0 6.0 0.00 0.00 0.00 94 1014.4
20170529063111 53 44 2.0 7.0 0.00 0.00 0.00 94 1014.4
20170529055111 53 48 2.0 9.0 0.00 0.00 0.00 94 1014.5
20170529054111 53 340 2.0 8.0 0.00 0.00 0.00 94 1014.5
20170529044111 53 348 1.0 7.0 0.00 0.00 0.00 93 1015.2
20170529043111 53 44 2.0 5.0 0.00 0.00 0.00 93 1015.2
20170529040112 54 66 0.0 3.0 0.00 0.00 0.00 92 1015.4
20170529035111 54 47 2.0 7.0 0.00 0.00 0.00 92 1015.4
20170529033111 54 5 2.0 8.0 0.00 0.00 0.00 91 1015.6